This is the latest recevied weather packets stored in our database for station/object KQ4WWD. If no packets are shown the sender has not sent any weather packets the latest 10 day(s).
| Time | Temp. | Humidity | Pressure | Rain* | Wind** | Luminosity | Snow |
|---|---|---|---|---|---|---|---|
| 1788478135 | 28.89° C | 88% | 1013.2 hPa | 0 mm | - | 13 W/m² | - |
| 1788477831 | 28.89° C | 88% | 1013 hPa | 0 mm | - | 19 W/m² | - |
| 1788477530 | 28.89° C | 87% | 1013.3 hPa | 0 mm | - | 25 W/m² | - |
| 1788477225 | 28.89° C | 87% | 1013.2 hPa | 0 mm | - | 29 W/m² | - |
| 1788476921 | 29.44° C | 87% | 1013 hPa | 0 mm | - | 35 W/m² | - |
| 1788476616 | 29.44° C | 86% | 1013.1 hPa | 0 mm | - | 40 W/m² | - |
| 1788476312 | 29.44° C | 86% | 1012.8 hPa | 0 mm | - | 44 W/m² | - |
| 1788476008 | 29.44° C | 85% | 1012.9 hPa | 0 mm | - | 46 W/m² | - |
| 1788475704 | 29.44° C | 85% | 1013.1 hPa | 0 mm | - | 46 W/m² | - |
| 1788475400 | 30° C | 84% | 1013.1 hPa | 0 mm | - | 43 W/m² | - |
| 1788475096 | 30° C | 84% | 1012.9 hPa | 0 mm | - | 39 W/m² | - |
| 1788474794 | 30° C | 84% | 1013.1 hPa | 0 mm | - | 31 W/m² | - |
| 1788474489 | 30° C | 84% | 1013.1 hPa | 0 mm | - | 29 W/m² | - |
| 1788474188 | 30.56° C | 83% | 1013.2 hPa | 0 mm | - | 41 W/m² | - |
| 1788473883 | 30.56° C | 83% | 1012.9 hPa | 0 mm | - | 66 W/m² | - |
| 1788473582 | 30.56° C | 83% | 1013 hPa | 0 mm | - | 81 W/m² | - |
| 1788473280 | 30.56° C | 82% | 1012.8 hPa | 0 mm | - | 90 W/m² | - |
| 1788472975 | 30.56° C | 82% | 1012.7 hPa | 0 mm | - | 110 W/m² | - |
| 1788472673 | 30.56° C | 81% | 1012.8 hPa | 0 mm | - | 140 W/m² | - |
| 1788472370 | 30.56° C | 81% | 1012.6 hPa | 0 mm | - | 184 W/m² | - |
| 1788472068 | 32.22° C | 77% | 1012.5 hPa | 0 mm | - | 229 W/m² | - |
| 1788471764 | 31.67° C | 76% | 1012.5 hPa | 0 mm | - | 277 W/m² | - |
| 1788471458 | 31.11° C | 77% | 1012.6 hPa | 0 mm | - | 259 W/m² | - |
| 1788471154 | 31.67° C | 76% | 1012.5 hPa | 0 mm | - | 189 W/m² | - |
| 1788470850 | 31.67° C | 77% | 1012.1 hPa | 0 mm | - | 264 W/m² | - |
* Rain latest hour (hover to see other rain measurements)
** Current wind speed in m/s (hover to see current wind gust speed)